Location: Tamazert
(32.6352°N, 5.2072°W)
Time: 23:21:49
(UTC+00:00)

Cosmos 2360 Rocket - Pass Details

Date: 22 May 2022
Orbit: 832 x 846 km, 71.0° (Epoch: 24 June)

Event Time Altitude Azimuth Distance (km) Brightness Sun altitude
Exits shadow 00:42:19 26° 327° (NNW) 1,586 3.9 -36.7°
Drops below altitude 10° 00:45:36 10° 359° (N) 2,455 5.3 -36.6°
Sets 00:48:21 0° 9° (N) 3,395 6.3 -36.5°
